User: anonymous   Login
Location: Unspecified
(0.0000°N, 0.0000°E)
Time: 23:16:26
(UTC+01:00)
Language:

Cosmos 1315 Rocket - Orbit

View from above orbital plane
View from above orbital plane
View from above satellite
View from above satellite

Ground track
Ground track

The orbit data is extracted from the following two-line orbital elements,

1 12904U 81103B   16344.92032132 +.00000154 +00000-0 +91178-5 0  9990
2 12904 081.1765 131.7006 0027820 329.6340 030.3269 15.05138594464132
Epoch (UTC): 09 December 2016 22:05:15
Eccentricity: 0.0027820
inclination: 81.1765°
perigee height: 532 km
apogee height: 570 km
right ascension of ascending node: 131.7006°
argument of perigee: 329.6340°
revolutions per day: 15.05138594
mean anomaly at epoch: 30.3269°
orbit number at epoch: 46413

The dashed part of the orbit path shows where the satellite is in the earth's shadow,  

DLR